Time,TemperatureF,DewpointF,PressureIn,WindDirection,WindDirectionDegrees,WindSpeedMPH,WindSpeedGustMPH,Humidity,HourlyPrecipIn,Conditions,Clouds,dailyrainin,SoftwareType,DateUTC
2013-05-10 00:02:00,49.7,49.0,29.75,North,9,0.0,10.0,96,0.19,,,0.86,weatherlink.com 1.10,2013-05-10 05:02:00,
2013-05-10 00:17:00,49.0,48.0,29.75,NE,49,2.0,8.0,96,0.09,,,0.02,weatherlink.com 1.10,2013-05-10 05:17:00,
2013-05-10 00:32:00,48.5,48.0,29.76,NNE,22,3.0,12.0,96,0.09,,,0.03,weatherlink.com 1.10,2013-05-10 05:32:00,
2013-05-10 00:47:00,48.3,47.0,29.76,NE,45,2.0,8.0,96,0.08,,,0.04,weatherlink.com 1.10,2013-05-10 05:47:00,
2013-05-10 01:02:00,48.3,47.0,29.76,NNE,28,4.0,11.0,96,0.05,,,0.05,weatherlink.com 1.10,2013-05-10 06:02:00,
2013-05-10 01:17:00,48.0,47.0,29.76,NE,52,2.0,10.0,96,0.03,,,0.05,weatherlink.com 1.10,2013-05-10 06:17:00,
2013-05-10 01:32:00,47.8,47.0,29.75,NNE,32,2.0,11.0,96,0.03,,,0.06,weatherlink.com 1.10,2013-05-10 06:32:00,
2013-05-10 01:47:00,47.8,47.0,29.76,NNE,27,3.0,11.0,96,0.02,,,0.06,weatherlink.com 1.10,2013-05-10 06:47:00,
2013-05-10 02:02:00,47.8,47.0,29.76,East,95,2.0,11.0,96,0.01,,,0.06,weatherlink.com 1.10,2013-05-10 07:02:00,
2013-05-10 02:17:00,47.9,47.0,29.76,NNE,14,3.0,11.0,96,0.01,,,0.06,weatherlink.com 1.10,2013-05-10 07:17:00,
2013-05-10 02:32:00,47.4,46.0,29.76,NNE,17,6.0,10.0,96,0.00,,,0.06,weatherlink.com 1.10,2013-05-10 07:32:00,
2013-05-10 02:47:00,47.1,46.0,29.75,NNE,13,2.0,12.0,95,0.00,,,0.06,weatherlink.com 1.10,2013-05-10 07:47:00,
2013-05-10 03:02:00,46.7,45.0,29.75,North,9,6.0,11.0,95,0.00,,,0.06,weatherlink.com 1.10,2013-05-10 08:02:00,
2013-05-10 03:17:00,46.4,45.0,29.75,NE,50,3.0,14.0,95,0.00,,,0.06,weatherlink.com 1.10,2013-05-10 08:17:00,
2013-05-10 03:32:00,46.5,45.0,29.77,ENE,71,0.0,9.0,95,0.00,,,0.06,weatherlink.com 1.10,2013-05-10 08:32:00,
2013-05-10 03:47:00,46.3,45.0,29.77,North,355,5.0,10.0,94,0.00,,,0.06,weatherlink.com 1.10,2013-05-10 08:47:00,
2013-05-10 04:02:00,46.2,45.0,29.78,East,80,1.0,8.0,94,0.00,,,0.06,weatherlink.com 1.10,2013-05-10 09:02:00,
2013-05-10 04:17:00,46.1,45.0,29.78,North,355,3.0,11.0,94,0.00,,,0.06,weatherlink.com 1.10,2013-05-10 09:17:00,
2013-05-10 04:32:00,45.5,44.0,29.79,North,5,2.0,9.0,95,0.00,,,0.06,weatherlink.com 1.10,2013-05-10 09:32:00,
2013-05-10 04:47:00,45.0,44.0,29.80,NNE,30,2.0,8.0,95,0.00,,,0.06,weatherlink.com 1.10,2013-05-10 09:47:00,
2013-05-10 05:02:00,44.3,43.0,29.80,NNE,19,1.0,11.0,95,0.00,,,0.06,weatherlink.com 1.10,2013-05-10 10:02:00,
2013-05-10 05:17:00,44.0,43.0,29.80,North,5,6.0,11.0,95,0.00,,,0.06,weatherlink.com 1.10,2013-05-10 10:17:00,
2013-05-10 05:33:00,43.5,42.0,29.80,NE,52,4.0,10.0,95,0.00,,,0.06,weatherlink.com 1.10,2013-05-10 10:33:00,
2013-05-10 05:48:00,43.4,42.0,29.81,ENE,70,1.0,8.0,96,0.00,,,0.06,weatherlink.com 1.10,2013-05-10 10:48:00,
2013-05-10 06:03:00,43.6,42.0,29.82,NNW,338,3.0,9.0,95,0.00,,,0.06,weatherlink.com 1.10,2013-05-10 11:03:00,
2013-05-10 06:18:00,43.9,43.0,29.82,NNW,348,3.0,5.0,96,0.00,,,0.06,weatherlink.com 1.10,2013-05-10 11:18:00,
2013-05-10 06:33:00,44.0,43.0,29.83,North,350,0.0,8.0,96,0.00,,,0.06,weatherlink.com 1.10,2013-05-10 11:33:00,
2013-05-10 06:48:00,43.7,42.0,29.83,NE,37,1.0,8.0,95,0.00,,,0.06,weatherlink.com 1.10,2013-05-10 11:48:00,
2013-05-10 07:03:00,43.9,43.0,29.83,North,360,4.0,8.0,95,0.00,,,0.06,weatherlink.com 1.10,2013-05-10 12:03:00,
2013-05-10 07:18:00,43.9,42.0,29.83,NNE,25,1.0,10.0,94,0.00,,,0.06,weatherlink.com 1.10,2013-05-10 12:18:00,
2013-05-10 07:33:00,44.0,42.0,29.84,North,360,3.0,13.0,94,0.00,,,0.06,weatherlink.com 1.10,2013-05-10 12:33:00,
2013-05-10 07:48:00,43.9,42.0,29.85,NE,34,4.0,9.0,93,0.00,,,0.06,weatherlink.com 1.10,2013-05-10 12:48:00,
2013-05-10 08:03:00,43.6,42.0,29.85,North,360,1.0,11.0,92,0.00,,,0.06,weatherlink.com 1.10,2013-05-10 13:03:00,
2013-05-10 08:18:00,43.8,42.0,29.85,NNE,22,2.0,8.0,93,0.00,,,0.06,weatherlink.com 1.10,2013-05-10 13:18:00,
2013-05-10 08:33:00,43.8,42.0,29.86,North,355,1.0,11.0,92,0.00,,,0.06,weatherlink.com 1.10,2013-05-10 13:33:00,
2013-05-10 08:48:00,44.1,42.0,29.85,North,355,1.0,11.0,92,0.00,,,0.06,weatherlink.com 1.10,2013-05-10 13:48:00,
2013-05-10 09:03:00,44.6,43.0,29.86,North,5,0.0,9.0,92,0.00,,,0.06,weatherlink.com 1.10,2013-05-10 14:03:00,
2013-05-10 09:18:00,44.8,42.0,29.86,NNE,30,4.0,9.0,91,0.00,,,0.06,weatherlink.com 1.10,2013-05-10 14:18:00,
2013-05-10 09:33:00,44.5,42.0,29.87,NNE,14,2.0,8.0,91,0.00,,,0.06,weatherlink.com 1.10,2013-05-10 14:33:00,
2013-05-10 09:48:00,44.7,42.0,29.87,NNE,30,4.0,10.0,91,0.00,,,0.06,weatherlink.com 1.10,2013-05-10 14:48:00,
2013-05-10 10:03:00,45.1,43.0,29.88,NNE,17,9.0,9.0,91,0.00,,,0.06,weatherlink.com 1.10,2013-05-10 15:03:00,
2013-05-10 10:18:00,45.2,43.0,29.88,NNE,20,2.0,13.0,91,0.00,,,0.06,weatherlink.com 1.10,2013-05-10 15:18:00,
2013-05-10 10:33:00,45.4,43.0,29.88,NW,312,5.0,10.0,91,0.00,,,0.06,weatherlink.com 1.10,2013-05-10 15:33:00,
2013-05-10 10:48:00,45.5,43.0,29.89,NE,45,6.0,8.0,91,0.00,,,0.06,weatherlink.com 1.10,2013-05-10 15:48:00,
2013-05-10 11:03:00,46.0,44.0,29.89,NNE,15,4.0,7.0,91,0.00,,,0.06,weatherlink.com 1.10,2013-05-10 16:03:00,
2013-05-10 11:18:00,46.1,43.0,29.90,NW,325,6.0,8.0,90,0.00,,,0.06,weatherlink.com 1.10,2013-05-10 16:18:00,
2013-05-10 11:33:00,46.2,44.0,29.90,East,80,2.0,8.0,90,0.00,,,0.06,weatherlink.com 1.10,2013-05-10 16:33:00,
2013-05-10 11:48:00,46.6,43.0,29.91,North,5,12.0,12.0,88,0.00,,,0.06,weatherlink.com 1.10,2013-05-10 16:48:00,
2013-05-10 12:03:00,46.3,44.0,29.90,NE,47,7.0,14.0,90,0.00,,,0.06,weatherlink.com 1.10,2013-05-10 17:03:00,
2013-05-10 12:18:00,46.8,44.0,29.90,North,360,4.0,10.0,90,0.00,,,0.06,weatherlink.com 1.10,2013-05-10 17:18:00,
2013-05-10 12:33:00,46.7,44.0,29.91,NNW,339,3.0,10.0,90,0.00,,,0.06,weatherlink.com 1.10,2013-05-10 17:33:00,
2013-05-10 12:48:00,46.9,44.0,29.91,NNW,345,0.0,9.0,90,0.00,,,0.06,weatherlink.com 1.10,2013-05-10 17:48:00,
2013-05-10 13:03:00,47.4,44.0,29.91,NE,41,3.0,6.0,88,0.00,,,0.06,weatherlink.com 1.10,2013-05-10 18:03:00,
2013-05-10 13:18:00,47.8,45.0,29.91,NNE,22,2.0,7.0,88,0.00,,,0.06,weatherlink.com 1.10,2013-05-10 18:18:00,
2013-05-10 13:33:00,48.2,45.0,29.91,North,360,2.0,7.0,87,0.00,,,0.06,weatherlink.com 1.10,2013-05-10 18:33:00,
2013-05-10 13:48:00,48.3,45.0,29.91,NE,34,1.0,7.0,87,0.00,,,0.06,weatherlink.com 1.10,2013-05-10 18:48:00,
2013-05-10 14:03:00,49.3,46.0,29.91,NE,46,2.0,7.0,87,0.00,,,0.06,weatherlink.com 1.10,2013-05-10 19:03:00,
2013-05-10 14:18:00,50.0,46.0,29.91,North,350,4.0,9.0,85,0.00,,,0.06,weatherlink.com 1.10,2013-05-10 19:18:00,
2013-05-10 14:33:00,50.2,47.0,29.91,NNE,19,9.0,9.0,87,0.00,,,0.06,weatherlink.com 1.10,2013-05-10 19:33:00,
2013-05-10 14:48:00,50.8,47.0,29.91,NW,322,2.0,8.0,85,0.00,,,0.06,weatherlink.com 1.10,2013-05-10 19:48:00,
2013-05-10 15:03:00,50.9,47.0,29.91,NW,323,1.0,7.0,86,0.00,,,0.06,weatherlink.com 1.10,2013-05-10 20:03:00,
2013-05-10 15:18:00,51.2,46.0,29.91,North,355,4.0,8.0,83,0.00,,,0.06,weatherlink.com 1.10,2013-05-10 20:18:00,
2013-05-10 15:33:00,51.0,46.0,29.91,NNW,333,3.0,9.0,83,0.00,,,0.06,weatherlink.com 1.10,2013-05-10 20:33:00,
2013-05-10 15:48:00,51.3,47.0,29.90,NE,43,4.0,10.0,84,0.00,,,0.06,weatherlink.com 1.10,2013-05-10 20:48:00,
2013-05-10 16:03:00,51.1,47.0,29.90,NNE,26,3.0,6.0,85,0.00,,,0.06,weatherlink.com 1.10,2013-05-10 21:03:00,
2013-05-10 16:18:00,51.1,46.0,29.91,North,355,2.0,10.0,84,0.00,,,0.06,weatherlink.com 1.10,2013-05-10 21:18:00,
2013-05-10 16:33:00,51.3,47.0,29.91,NW,325,7.0,7.0,84,0.00,,,0.06,weatherlink.com 1.10,2013-05-10 21:33:00,
2013-05-10 16:48:00,51.5,47.0,29.91,NE,40,1.0,8.0,85,0.00,,,0.06,weatherlink.com 1.10,2013-05-10 21:48:00,
2013-05-10 17:03:00,51.7,47.0,29.91,NE,51,2.0,7.0,85,0.00,,,0.06,weatherlink.com 1.10,2013-05-10 22:03:00,
2013-05-10 17:18:00,51.6,47.0,29.91,North,355,5.0,6.0,84,0.00,,,0.06,weatherlink.com 1.10,2013-05-10 22:18:00,
2013-05-10 17:33:00,51.2,47.0,29.91,North,9,1.0,7.0,84,0.00,,,0.06,weatherlink.com 1.10,2013-05-10 22:33:00,
2013-05-10 17:49:00,51.0,47.0,29.91,North,11,1.0,7.0,85,0.00,,,0.06,weatherlink.com 1.10,2013-05-10 22:49:00,
2013-05-10 18:04:00,51.1,47.0,29.91,NNE,20,3.0,3.0,85,0.00,,,0.06,weatherlink.com 1.10,2013-05-10 23:04:00,
2013-05-10 18:19:00,51.1,47.0,29.91,NNE,13,0.0,4.0,85,0.00,,,0.06,weatherlink.com 1.10,2013-05-10 23:19:00,
2013-05-10 18:34:00,51.1,47.0,29.91,NE,49,1.0,4.0,85,0.00,,,0.06,weatherlink.com 1.10,2013-05-10 23:34:00,
2013-05-10 18:49:00,51.2,47.0,29.91,North,11,1.0,5.0,85,0.00,,,0.06,weatherlink.com 1.10,2013-05-10 23:49:00,
2013-05-10 19:04:00,51.0,47.0,29.91,NNE,28,0.0,2.0,86,0.00,,,0.06,weatherlink.com 1.10,2013-05-11 00:04:00,
2013-05-10 19:19:00,50.9,47.0,29.91,NNE,21,0.0,2.0,86,0.00,,,0.06,weatherlink.com 1.10,2013-05-11 00:19:00,
2013-05-10 19:34:00,50.8,47.0,29.91,NNE,21,0.0,0.0,86,0.00,,,0.06,weatherlink.com 1.10,2013-05-11 00:34:00,
2013-05-10 19:49:00,50.8,47.0,29.92,NNE,21,0.0,0.0,88,0.00,,,0.06,weatherlink.com 1.10,2013-05-11 00:49:00,
2013-05-10 20:04:00,50.8,47.0,29.92,NNE,21,0.0,0.0,88,0.00,,,0.06,weatherlink.com 1.10,2013-05-11 01:04:00,
2013-05-10 20:19:00,50.8,47.0,29.93,NNE,21,0.0,0.0,88,0.00,,,0.06,weatherlink.com 1.10,2013-05-11 01:19:00,
2013-05-10 20:34:00,50.7,47.0,29.92,NNE,21,0.0,1.0,88,0.00,,,0.06,weatherlink.com 1.10,2013-05-11 01:34:00,
2013-05-10 20:49:00,50.5,47.0,29.92,NNE,21,0.0,0.0,88,0.00,,,0.06,weatherlink.com 1.10,2013-05-11 01:49:00,
2013-05-10 21:04:00,50.1,47.0,29.93,NNE,21,0.0,0.0,88,0.00,,,0.06,weatherlink.com 1.10,2013-05-11 02:04:00,
2013-05-10 21:19:00,49.5,46.0,29.93,NNE,21,0.0,0.0,89,0.00,,,0.06,weatherlink.com 1.10,2013-05-11 02:19:00,
2013-05-10 21:34:00,48.9,46.0,29.94,NNE,21,0.0,0.0,90,0.00,,,0.06,weatherlink.com 1.10,2013-05-11 02:34:00,
2013-05-10 21:49:00,48.5,46.0,29.94,NNE,21,0.0,0.0,91,0.00,,,0.06,weatherlink.com 1.10,2013-05-11 02:49:00,
2013-05-10 22:04:00,48.0,46.0,29.94,NNE,21,0.0,0.0,91,0.00,,,0.06,weatherlink.com 1.10,2013-05-11 03:04:00,
2013-05-10 22:19:00,47.6,45.0,29.93,NNE,21,0.0,0.0,92,0.00,,,0.06,weatherlink.com 1.10,2013-05-11 03:19:00,
2013-05-10 22:34:00,47.4,46.0,29.93,NNE,21,0.0,0.0,93,0.00,,,0.06,weatherlink.com 1.10,2013-05-11 03:34:00,
2013-05-10 22:49:00,47.2,45.0,29.93,NNE,21,0.0,0.0,93,0.00,,,0.06,weatherlink.com 1.10,2013-05-11 03:49:00,
2013-05-10 23:04:00,46.8,45.0,29.91,NNE,21,0.0,0.0,94,0.00,,,0.06,weatherlink.com 1.10,2013-05-11 04:04:00,
2013-05-10 23:19:00,46.5,45.0,29.91,NNE,21,0.0,0.0,94,0.00,,,0.06,weatherlink.com 1.10,2013-05-11 04:19:00,
2013-05-10 23:34:00,46.1,45.0,29.92,NNE,21,0.0,0.0,95,0.00,,,0.06,weatherlink.com 1.10,2013-05-11 04:34:00,
2013-05-10 23:49:00,45.7,44.0,29.91,NNE,21,0.0,0.0,95,0.00,,,0.06,weatherlink.com 1.10,2013-05-11 04:49:00,